Content
SEND FEEDBACK

Daily
Averages
Monthly
Summary
United States of America

BROOKLYN, NEW YORK


Home > North America > United States > New York
Elevation: 2 feet     Latitude: 40 36N     Longitude: 073 59W

WEATHER
 
SELECT A DAY
Number of Records: 185,245;   Date Range: 1/1/95 - 7/20/14
 
SHARE

PRINT THIS DATA

[ ← Previous Day ]
WEATHER ALMANAC - FEBRUARY 5, 2013
[ Next Day → ]
[ °C ]   °F
Weather ElementAverageHighLow
Temperature29.9 °F32 °F (11:51 pm)28 °F (1:51 am)
Dewpoint25.7 °F28 °F (11:51 pm)23 °F (1:51 am)
Humidity83.9 %89 % (7:51 am)81 % (1:51 am)
Barometer29.94 in29.99 in (10:51 am)29.92 in (2:51 pm)
Wind Speed5.4 mph10.4 mph (8:42 am)
Weather ElementAverage
Visibility7 mi
Wind DirectionENE (64.7 °)

Weather ElementTotal
Precipitation0.01 in
Heating Degree Days35 (Base 65)
Averaged from 32 records on February 5, 2013
WEATHER CONDITIONS BREAKOUT
WIND DIRECTION BREAKOUT
WEATHER BY HOUR - FEBRUARY 5, 2013
[ °C ]   °F
Local TimeTemperatureDewpointHumidityBarometerVisibilityWind DirectionWind SpeedGust SpeedPrecipitationEventsConditions
1:51 AM28.0 °F23.0 °F81 %29.97 in7.0 miSW (220°)5.8 mph0.00 inSnowLight Snow
2:51 AM28.9 °F24.1 °F82 %29.96 in8.0 miSW (230°)3.5 mph0.00 inSnowLight Snow
3:31 AM28.4 °F24.8 °F86 %29.95 in7.0 miCalm0.00 inSnowLight Snow
3:51 AM28.9 °F24.1 °F82 %29.95 in6.0 miCalm0.00 inSnowLight Snow
4:51 AM28.9 °F25.0 °F85 %29.93 in8.0 miNNE (30°)3.5 mph0.01 inOvercast
4:58 AM28.4 °F24.8 °F86 %29.93 in8.0 miNorth (10°)3.5 mphOvercast
5:51 AM28.9 °F25.0 °F85 %29.94 in8.0 miNNE (20°)3.5 mph0.00 inSnowLight Snow
6:25 AM28.4 °F24.8 °F86 %29.94 in5.0 miENE (60°)4.6 mph0.00 inSnowLight Snow
6:49 AM28.4 °F24.8 °F86 %29.95 in3.0 miNE (50°)4.6 mph0.00 inSnowLight Snow
6:51 AM28.9 °F25.0 °F85 %29.95 in3.0 miNE (50°)4.6 mph0.00 inSnowLight Snow
7:51 AM28.9 °F26.1 °F89 %29.96 in6.0 miNE (40°)6.9 mph0.00 inOvercast
8:42 AM28.4 °F24.8 °F86 %29.97 in7.0 miNE (40°)10.4 mphOvercast
8:51 AM28.9 °F24.1 °F82 %29.97 in8.0 miNNE (30°)8.1 mphOvercast
9:51 AM30.0 °F25.0 °F82 %29.97 in7.0 miNE (50°)8.1 mphOvercast
10:51 AM30.9 °F26.1 °F82 %29.99 in8.0 miNNE (20°)8.1 mphOvercast
11:51 AM30.9 °F26.1 °F82 %29.97 in7.0 miNE (40°)9.2 mphOvercast
12:51 PM30.9 °F26.1 °F82 %29.96 in7.0 miNE (40°)6.9 mphOvercast
1:51 PM30.9 °F26.1 °F82 %29.93 in5.0 miNE (40°)8.1 mph0.00 inSnowLight Snow
2:51 PM30.9 °F26.1 °F82 %29.92 in7.0 miNE (50°)8.1 mph0.00 inSnowLight Snow
3:51 PM30.9 °F26.1 °F82 %29.94 in7.0 miNE (40°)3.5 mph0.00 inSnowLight Snow
4:51 PM30.9 °F26.1 °F82 %29.93 in8.0 miNNE (30°)3.5 mph0.00 inOvercast
5:32 PM30.2 °F26.6 °F86 %29.92 in8.0 miNE (50°)4.6 mphOvercast
5:51 PM30.9 °F26.1 °F82 %29.92 in8.0 miNE (40°)5.8 mphOvercast
6:48 PM30.2 °F26.6 °F86 %29.92 in8.0 miNNE (30°)6.9 mphOvercast
6:51 PM30.9 °F26.1 °F82 %29.93 in8.0 miNNE (20°)5.8 mphOvercast
7:51 PM30.9 °F26.1 °F82 %29.92 in8.0 miNNE (20°)4.6 mph0.00 inSnowLight Snow
8:14 PM30.2 °F26.6 °F86 %29.93 in7.0 miNorth (360°)5.8 mph0.00 inSnowLight Snow
8:51 PM30.9 °F26.1 °F82 %29.93 in7.0 miNNE (20°)6.9 mph0.00 inSnowLight Snow
9:36 PM30.2 °F26.6 °F86 %29.93 in7.0 miNNE (30°)4.6 mph0.00 inSnowLight Snow
9:51 PM30.9 °F27.0 °F85 %29.93 in7.0 miNE (40°)5.8 mph0.00 inSnowLight Snow
10:51 PM30.9 °F27.0 °F85 %29.94 in9.0 miNorth (360°)4.6 mph0.00 inOvercast
11:51 PM32.0 °F28.0 °F85 %29.94 in7.0 miNorth (10°)3.5 mph0.00 inSnowLight Snow
Hourly data recorded from KJFK, located miles away from Brooklyn, New York







STORIES FROM OUR PARTNERS